#timestamp,LO_Frequency,Hit,StdDev 
1458367215.4,286046992.1,P
1458367235.2,286046988.6,P
1458367255.0,286046987.5,Y
1458367255.9,286046987.5,P
1458367275.8,286046998.4,N
1458367295.6,286046998.3,N
1458367315.4,286047000.9,N
1458367335.2,286047003.2,N
1458367355.1,286047006.0,N
1458367356.0,286047006.0,N
1458367375.8,286047000.1,N
1458367395.6,286046999.7,N
1458367415.5,286046998.2,N
1458367435.3,286047004.1,N
1458367455.1,286047004.4,N
1458367475.9,286047005.3,N
1458367495.7,286047005.0,N
1458367515.5,286047006.2,N
1458367535.4,286047013.9,N
1458367555.2,286047015.6,N
1458367575.0,286047013.9,N
1458367575.9,286047013.9,N
1458367595.8,286047013.6,N
1458367615.6,286047009.3,N
1458367635.4,286047012.2,N
1458367655.3,286047010.7,N
1458367675.1,286047008.1,N
1458367676.0,286047008.1,N
1458367695.8,286047008.1,N
1458367715.6,286047013.7,N
1458367735.5,286047016.5,N
1458367755.3,286047017.7,N
1458367775.1,286047021.8,N
1458367795.9,286047019.0,N
1458367815.7,286047020.4,Y
1458367835.5,286047011.5,P
1458367855.4,286047015.6,P
1458367875.2,286047014.3,P
1458367895.0,286047014.1,Y
1458367895.9,286047014.1,P
1458367915.8,286047003.3,P
1458367935.6,286047002.6,N
1458367955.4,286047000.7,N
1458367975.3,286047002.6,N
1458367995.1,286047002.6,N
1458367996.0,286047002.6,N
1458368015.8,286047002.8,N
1458368035.7,286046998.6,N
1458368055.5,286046999.0,N
1458368075.3,286047000.8,N
1458368095.2,286047000.7,N
1458368115.9,286047001.3,N
1458368135.7,286047005.5,N
1458368155.6,286047009.2,N
1458368175.4,286047008.1,N
1458368195.2,286047012.4,N
1458368215.0,286047009.0,N
1458368215.9,286047009.0,N
1458368235.8,286047006.4,N
1458368255.6,286047004.6,N
1458368275.4,286047003.0,N
1458368295.3,286047007.5,N
1458368315.1,286047006.8,N
1458368316.0,286047006.8,N
1458368335.8,286047009.1,N
1458368355.7,286047009.8,N
1458368375.5,286047009.3,N
1458368395.3,286047009.3,N
1458368415.2,286047011.4,N
1458368435.9,286047015.2,Y
1458368455.7,286047008.1,P
1458368475.6,286047008.8,P
1458368495.4,286047008.2,P
1458368515.2,286047010.2,Y
1458368535.1,286047004.1,P
1458368536.0,286047004.1,N
1458368555.8,286047003.6,N
1458368575.6,286047003.1,N
1458368595.5,286047001.3,N
1458368615.3,286047004.2,N
1458368635.1,286047002.2,N
1458368655.8,286047003.7,N
1458368675.7,286047004.2,N
1458368695.5,286047000.6,N
1458368715.3,286046997.7,N
1458368735.2,286046997.0,N
1458368755.9,286046998.9,N
1458368775.7,286046996.8,N
1458368795.6,286046995.7,N
1458368815.4,286046997.5,N
1458368835.2,286046994.6,N
1458368855.1,286046993.0,N
1458368856.0,286046993.0,N
1458368875.8,286046989.9,N
1458368895.6,286046986.1,Y
1458368915.5,286046986.4,P
1458368935.3,286046983.7,N
1458368955.1,286046984.3,N
1458368975.9,286046986.4,N
1458368995.7,286046983.9,N
1458369015.5,286046985.1,N
1458369035.3,286046985.4,N
1458369055.2,286046985.6,N
1458369075.0,286046985.3,Y
1458369075.9,286046985.3,P
1458369095.7,286047000.7,N
1458369115.6,286047000.1,N
1458369135.4,286047003.8,N
1458369155.2,286047003.8,N
1458369175.1,286047005.2,N
1458369176.0,286047005.2,N
1458369195.8,286047006.6,N
1458369215.6,286047011.0,N
1458369235.5,286047012.8,N
1458369255.3,286047015.5,N
1458369275.2,286047014.5,N
1458369295.9,286047016.7,N
1458369315.7,286047015.8,N
1458369335.6,286047018.1,N
1458369355.4,286047019.8,N
1458369375.2,286047020.3,N
1458369395.0,286047018.6,N
1458369395.9,286047018.6,N
1458369415.8,286047017.5,N
1458369435.6,286047015.8,N
1458369455.4,286047017.7,N
1458369475.3,286047018.3,N
1458369495.1,286047015.6,N
1458369515.8,286047014.9,N
1458369535.7,286047016.2,N
1458369555.5,286047017.1,N
1458369575.3,286047018.7,N
1458369595.2,286047017.3,N
1458369615.9,286047015.7,N
1458369635.7,286047015.3,N
1458369655.6,286047012.4,N
1458369675.4,286047012.1,N
1458369695.2,286047013.8,N
1458369715.1,286047013.3,Y
1458369716.0,286047013.3,P
1458369735.8,286046997.0,P
1458369755.6,286046995.0,N
1458369775.5,286046999.5,N
1458369795.3,286046999.0,N
1458369815.1,286046997.0,N
1458369835.8,286046996.8,N
1458369855.7,286046993.4,N
1458369875.5,286046993.3,N
1458369895.3,286046993.5,N
1458369915.2,286046996.5,N
1458369935.9,286046996.6,N
1458369955.7,286046994.8,N
1458369975.6,286046995.0,N
1458369995.4,286046995.5,N
1458370015.2,286046995.0,N
1458370035.1,286046996.9,N
1458370036.0,286046996.9,N
1458370055.8,286047002.2,N
1458370075.6,286047005.3,N
1458370095.5,286047005.4,N
1458370115.3,286047006.6,N
1458370135.1,286047006.1,N
1458370155.8,286047007.9,N
1458370175.7,286047007.7,N
1458370195.5,286047006.0,N
1458370215.3,286047000.7,N
1458370235.2,286046992.2,N
1458370255.0,286046993.1,N
1458370255.9,286046993.1,N
1458370275.7,286046990.4,N
1458370295.6,286046990.0,N
1458370315.4,286046991.0,N
1458370335.2,286046988.6,N
1458370355.1,286046987.8,N
1458370356.0,286046987.8,N
1458370375.8,286046989.9,N
1458370395.6,286046990.2,N
1458370415.5,286046992.9,N
1458370435.3,286046994.9,N
1458370455.1,286046998.6,N
1458370475.9,286047002.3,N
1458370495.7,286047001.6,N
1458370515.5,286047004.0,N
1458370535.3,286047002.9,N
1458370555.2,286047000.5,N
1458370575.0,286046996.6,N
1458370575.9,286046996.6,N
1458370595.7,286046991.8,N
1458370615.6,286046994.7,N
1458370635.4,286046990.8,N
1458370655.2,286046988.3,N
1458370675.1,286046986.3,N
1458370676.0,286046986.3,N
1458370695.8,286046987.1,N
1458370715.6,286046987.3,N
1458370735.5,286046986.5,N
1458370755.3,286046984.4,N
1458370775.1,286046984.6,N
1458370795.9,286046981.7,Y
